Torna al catalogo

BREEZE-M DEB

TANK

AttivoHEO
NORAD 38089·DEBRIS·🇷🇺 Russia

Lanciato Feb 14, 2012 da Baikonur Cosmodrome

Loading…

Prossimi Passaggi (prossime 24 ore)

TLE

AggiornatoSource: Space-Track

Epoca: Sep 14, 2026, 14:11 UTC

1 38089U 12007C   26257.59105645  .00002665  00000-0  48066-3 0  9991
2 38089  49.5895 283.8117 4939921 196.3906 139.1029  5.71350785294158

Traccia BREEZE-M DEB in tempo reale con AllMySat

Download on the App Store